Location: Saint-Palais-sur-Mer
(45.6429°N, 1.0859°W)
Time: 03:57:18
(UTC+02:00)

CUBEBUG 2 - Pass Details

Date: 02 May 2024
Orbit: 570 x 668 km, 97.8° (Epoch: 23 May)

Event Time Altitude Azimuth Distance (km) Brightness Sun altitude
Rises 04:50:22 0° 6° (N) 2,820 ? -17.9°
Reaches altitude 10° 04:52:34 10° 360° (N) 1,927 ? -17.6°
Maximum altitude 04:56:31 42° 289° (WNW) 862 ? -17.2°
Enters shadow 04:57:51 32° 245° (WSW) 1,047 ? -17.0°
